Location: *
(51.2167°N, 10.0667°E)
Time: 15:47:46
(UTC+00:00)

Cosmos 2344 - Pass Details

Date: 12 December 2019
Orbit: 1256 x 2986 km, 63.3° (Epoch: 18 January)

Event Time Altitude Azimuth Distance (km) Brightness Sun altitude
Rises 16:52:11 0° 306° (NW) 4,407 6.9 -14.6°
Reaches altitude 10° 16:54:53 10° 311° (NW) 3,546 6.3 -15.0°
Maximum altitude 17:03:25 53° 29° (NNE) 2,040 4.4 -16.3°
Enters shadow 17:12:24 18° 100° (E) 3,979 5.6 -17.6°
